Retour au catalogue

STARLINK-33978

ActifCommunicationsVLEO
NORAD 63832·PAYLOAD·🇺🇸 United States

Lancé May 4, 2025 depuis Cape Canaveral Space Force Station

Loading…

Prochains Passages (prochaines 24 heures)

TLE

FraisSource: CelesTrak SupGP

Époque: Sep 14, 2026, 22:41 UTC

1 63832C 25092AE  26257.94562500 -.00036662  00000+0 -13277-2 0  2576
2 63832  43.0009 183.5747 0001169 264.4325 348.1580 15.27601079    16

Suivez STARLINK-33978 en temps réel avec AllMySat

Download on the App Store